Vorticity
12 -1 6 6 2 10 4 4 6 2 3 5 9 9 9 7 5 6 6 8 16 17 11 12 16 10 9 13 14 11 8 3 6 11 11 12 12 10 11 9 11 -3 -13
12 9 14 -6 3 -1 0 8 10 9 9 12 9 6 6 3 5 4 8 11 16 13 13 14 13 14 6 15 14 15 16 11 7 9 11 12 13 13 10 12 5 4 5
5 -1 3 4 4 -1 -8 10 11 9 8 9 13 8 4 2 6 7 7 14 15 12 13 16 14 11 9 11 4 6 11 11 8 11 10 12 9 10 9 10 8 8 7
9 7 7 14 7 6 -1 -3 3 4 9 8 10 7 6 6 5 7 10 13 13 13 16 15 13 13 11 0 13 15 19 19 15 20 14 14 10 9 9 9 6 5 5
2 7 5 7 7 7 6 4 4 4 7 7 7 11 8 6 7 7 10 11 13 15 16 14 13 10 9 8 12 8 -1 10 6 8 11 12 11 9 7 7 6 6 6
3 1 6 5 2 1 2 -2 15 4 3 13 8 7 9 9 8 8 11 11 10 17 16 13 14 9 9 0 22 7 13 3 4 8 11 8 8 8 7 6 6 7 8
4 5 8 6 3 6 6 10 6 8 3 10 9 8 9 11 9 9 12 9 12 17 14 12 14 9 11 3 7 6 8 -3 4 8 5 8 8 8 8 7 7 8 7
-0 3 9 6 7 4 3 8 9 8 7 8 12 10 10 14 10 8 11 13 15 11 14 9 11 7 13 25 12 1 7 14 21 9 11 10 7 7 7 7 7 7 6
7 4 3 -0 10 8 5 5 7 7 5 9 11 10 9 15 13 10 10 9 12 12 14 10 10 8 9 8 18 22 12 16 6 -1 -4 8 7 8 4 7 7 7 7
0 3 2 8 9 1 9 4 8 8 9 11 10 11 14 16 15 12 11 17 12 12 12 10 15 14 7 12 9 13 10 11 16 20 26 3 -8 1 2 2 -4 5 8
7 2 -0 1 0 5 9 9 5 8 15 12 12 15 17 18 18 14 12 20 1 13 13 14 9 17 -0 7 6 11 8 12 18 15 15 11 29 24 27 17 13 10 -6
2 6 5 4 11 8 9 11 11 10 10 13 15 16 16 19 22 18 16 16 3 5 24 2 16 20 -7 7 14 15 9 12 13 12 13 15 9 10 14 15 18 25 14
8 -1 6 9 5 10 9 10 13 13 14 15 17 16 16 20 18 16 15 2 8 18 26 2 16 -20 27 17 18 3 -7 -1 10 13 12 17 19 20 17 16 15 16 15
-2 7 9 6 4 14 8 13 14 17 20 15 18 20 20 16 15 10 3 12 19 20 6 -4 13 -6 30 12 -1 20 15 10 10 6 3 10 18 13 12 12 13 14 15
5 1 8 8 20 11 11 21 22 17 17 21 19 16 13 10 9 15 26 30 27 31 5 5 16 19 -3 16 4 -6 16 7 8 2 9 15 13 13 12 9 9 13 14
2 15 13 26 16 16 17 17 16 20 16 12 14 15 13 22 16 27 23 30 7 33 11 14 2 29 14 20 1 13 5 12 15 11 20 10 11 10 9 9 18 20 17
14 19 22 19 26 16 16 15 16 20 20 20 10 7 12 15 14 22 8 14 13 21 -7 22 -9 19 2 6 17 16 14 10 15 8 9 3 12 9 7 16 16 12 11
21 19 19 14 11 17 15 19 17 18 12 13 15 15 15 14 12 24 -1 12 12 17 6 14 13 2 9 15 16 12 9 11 13 8 9 19 4 5 11 17 11 10 9
17 17 8 15 17 16 18 17 13 14 8 9 13 13 12 17 21 27 2 23 6 12 8 7 11 10 24 14 13 13 11 4 10 19 7 5 3 4 15 14 8 11 9
19 14 21 17 21 17 15 10 7 6 8 12 17 18 18 12 14 19 8 9 18 3 19 18 19 21 13 16 18 12 11 12 10 12 14 7 11 13 16 13 9 9 9
23 15 17 13 9 9 9 5 8 6 8 16 20 16 17 21 10 20 11 -12 6 19 15 17 9 12 18 16 12 11 8 12 11 9 10 6 9 17 13 10 9 8 9
12 14 8 10 10 9 8 7 6 8 15 19 16 13 14 16 30 10 16 20 6 18 1 1 10 6 16 13 7 9 15 9 8 8 3 11 18 14 10 10 7 8 10
12 8 4 11 10 10 5 -0 4 14 22 17 13 12 10 11 20 26 11 8 14 22 6 8 10 11 5 14 11 6 7 7 6 8 1 17 16 10 11 8 8 8 11
12 9 5 3 4 11 10 15 20 16 15 8 11 7 10 14 10 29 22 10 10 16 13 7 3 6 8 12 17 16 6 9 10 8 1 26 9 11 8 8 7 8 11
-0 2 7 4 8 5 25 21 12 8 12 15 12 9 7 10 13 20 26 3 11 12 8 17 7 7 5 8 1 6 11 12 11 6 1 26 7 9 7 8 6 9 11
11 8 9 20 23 20 18 12 9 11 10 11 11 17 12 13 9 12 32 12 6 6 17 15 8 10 6 1 2 7 15 10 7 7 7 24 8 6 8 6 8 8 11
Height
5814 5814 5812 5809 5807 5805 5801 5797 5794 5788 5783 5779 5775 5772 5768 5765 5760 5756 5751 5747 5744 5742 5738 5736 5735 5734 5734 5733 5732 5732 5732 5733 5734 5736 5737 5738 5739 5741 5742 5744 5745 5747 5748
5810 5807 5805 5803 5800 5798 5793 5789 5785 5780 5776 5772 5767 5764 5759 5755 5749 5745 5741 5737 5734 5731 5728 5726 5725 5724 5722 5722 5722 5721 5722 5723 5724 5725 5727 5728 5730 5731 5734 5736 5738 5739 5740
5803 5801 5797 5794 5791 5789 5786 5781 5776 5772 5768 5763 5759 5754 5748 5743 5739 5734 5730 5727 5724 5721 5718 5716 5715 5713 5713 5712 5712 5712 5712 5713 5714 5715 5718 5720 5721 5722 5724 5728 5730 5731 5733
5795 5792 5789 5785 5782 5779 5776 5773 5767 5762 5758 5752 5748 5744 5739 5733 5727 5723 5719 5716 5713 5710 5708 5706 5705 5704 5703 5703 5703 5703 5703 5703 5705 5706 5708 5711 5713 5714 5716 5718 5721 5722 5724
5784 5781 5778 5775 5772 5767 5764 5760 5756 5751 5746 5740 5737 5733 5727 5722 5716 5712 5708 5705 5702 5700 5697 5696 5694 5693 5694 5694 5694 5694 5693 5694 5696 5698 5700 5701 5704 5706 5708 5709 5711 5713 5714
5772 5769 5766 5763 5759 5755 5752 5748 5743 5738 5733 5728 5724 5719 5715 5709 5704 5700 5696 5694 5691 5689 5687 5685 5684 5683 5683 5684 5684 5685 5684 5684 5686 5689 5691 5692 5695 5698 5699 5702 5703 5704 5705
5761 5758 5755 5751 5748 5743 5738 5734 5729 5724 5719 5714 5710 5706 5701 5696 5691 5687 5684 5682 5680 5678 5676 5675 5674 5673 5672 5673 5674 5675 5675 5676 5676 5679 5681 5682 5684 5688 5690 5692 5693 5695 5696
5748 5746 5742 5739 5735 5730 5726 5721 5715 5710 5704 5699 5695 5691 5688 5683 5678 5674 5671 5669 5668 5665 5665 5663 5663 5662 5662 5662 5662 5663 5664 5665 5666 5668 5670 5672 5674 5676 5679 5680 5683 5684 5686
5735 5732 5728 5725 5720 5716 5711 5704 5699 5693 5688 5683 5679 5675 5671 5668 5665 5661 5658 5657 5655 5653 5652 5652 5652 5652 5652 5652 5653 5653 5654 5655 5656 5657 5659 5660 5663 5665 5667 5669 5671 5672 5674
5723 5718 5714 5710 5705 5700 5696 5690 5684 5679 5674 5669 5664 5659 5655 5651 5649 5647 5646 5644 5642 5641 5641 5641 5642 5642 5643 5643 5643 5644 5644 5645 5646 5646 5648 5649 5651 5653 5655 5657 5658 5659 5661
5708 5705 5701 5696 5692 5687 5682 5674 5668 5663 5659 5654 5648 5644 5640 5636 5633 5632 5631 5631 5630 5630 5630 5630 5631 5632 5633 5634 5634 5635 5635 5636 5635 5636 5636 5637 5638 5641 5643 5644 5645 5647 5649
5693 5690 5686 5680 5675 5671 5665 5659 5652 5645 5641 5636 5632 5627 5624 5621 5619 5618 5617 5618 5618 5618 5618 5620 5620 5622 5624 5624 5625 5626 5626 5627 5626 5626 5627 5628 5629 5630 5631 5632 5633 5634 5636
5677 5674 5669 5664 5658 5653 5646 5641 5636 5629 5625 5621 5617 5613 5610 5607 5605 5605 5605 5606 5606 5606 5607 5608 5611 5612 5613 5615 5616 5616 5617 5618 5618 5618 5619 5619 5619 5620 5621 5621 5621 5622 5623
5659 5654 5648 5642 5638 5634 5630 5626 5621 5616 5610 5605 5602 5599 5597 5594 5594 5593 5594 5593 5592 5594 5596 5598 5600 5601 5602 5604 5606 5607 5608 5609 5610 5611 5611 5611 5611 5611 5611 5611 5611 5612 5613
5639 5635 5630 5625 5620 5614 5611 5607 5603 5599 5596 5591 5589 5586 5584 5583 5581 5582 5580 5580 5579 5581 5583 5586 5588 5590 5592 5595 5597 5598 5600 5600 5602 5603 5603 5603 5603 5603 5603 5603 5603 5603 5603
5622 5617 5612 5609 5606 5602 5597 5592 5588 5585 5583 5580 5577 5574 5573 5572 5571 5570 5571 5570 5572 5572 5574 5577 5579 5580 5583 5586 5588 5590 5591 5591 5592 5593 5594 5595 5594 5594 5595 5595 5595 5595 5594
5607 5602 5596 5591 5587 5586 5583 5578 5576 5570 5569 5567 5565 5564 5562 5561 5561 5561 5562 5562 5563 5565 5567 5569 5571 5573 5574 5577 5579 5580 5581 5582 5583 5585 5586 5587 5587 5587 5587 5587 5586 5586 5586
5585 5582 5578 5575 5573 5570 5567 5563 5562 5560 5558 5557 5555 5553 5552 5551 5552 5553 5553 5554 5555 5556 5557 5559 5562 5563 5565 5568 5570 5571 5573 5574 5575 5577 5578 5579 5579 5579 5579 5578 5579 5578 5578
5569 5565 5562 5561 5559 5557 5555 5552 5550 5549 5548 5546 5544 5543 5542 5541 5542 5544 5545 5545 5547 5548 5549 5551 5553 5555 5557 5559 5560 5562 5564 5565 5567 5570 5571 5571 5572 5572 5571 5571 5571 5571 5571
5554 5552 5549 5547 5546 5546 5544 5542 5540 5539 5537 5535 5533 5532 5532 5532 5532 5533 5535 5536 5537 5540 5541 5543 5545 5546 5548 5550 5552 5554 5556 5559 5561 5563 5563 5564 5564 5564 5563 5564 5565 5564 5564
5541 5539 5537 5536 5535 5535 5535 5533 5532 5529 5527 5525 5523 5522 5522 5521 5522 5523 5524 5527 5529 5531 5533 5536 5537 5539 5540 5542 5545 5547 5550 5552 5554 5555 5556 5556 5556 5556 5557 5558 5557 5557 5556
5530 5528 5527 5526 5524 5524 5525 5523 5522 5520 5518 5515 5514 5514 5513 5512 5512 5513 5515 5517 5521 5523 5525 5528 5530 5533 5535 5537 5539 5541 5543 5545 5547 5548 5548 5549 5549 5550 5550 5551 5550 5550 5549
5518 5517 5517 5516 5514 5515 5514 5513 5512 5510 5508 5506 5506 5506 5505 5504 5503 5504 5506 5509 5512 5515 5518 5521 5523 5526 5528 5531 5533 5534 5537 5538 5540 5540 5541 5542 5542 5543 5544 5544 5544 5543 5541
5508 5506 5507 5506 5505 5503 5503 5502 5501 5500 5499 5498 5498 5497 5497 5497 5496 5496 5498 5501 5503 5506 5509 5513 5516 5519 5522 5524 5526 5528 5530 5531 5532 5534 5535 5535 5536 5537 5537 5537 5537 5536 5535
5498 5497 5496 5495 5494 5492 5491 5491 5490 5490 5489 5489 5488 5489 5489 5489 5489 5489 5490 5493 5495 5499 5502 5505 5509 5513 5516 5518 5520 5522 5523 5524 5525 5527 5528 5528 5529 5530 5531 5530 5529 5529 5528
5486 5486 5484 5483 5482 5481 5481 5481 5481 5480 5480 5480 5479 5479 5479 5480 5481 5482 5482 5485 5488 5492 5495 5498 5501 5505 5508 5510 5513 5515 5516 5517 5518 5519 5520 5521 5522 5523 5524 5523 5523 5522 5522